Meridian, MS

5:17 AM CST on December 06, 2019 (GMT -0600)
Key

Weather History for KMEI - October, 2019

Change the Weather History Date:

Wednesday, October 2, 2019

  Actual Average Record
Temperature  
Mean Temperature 86 °F 69 °F  
Max Temperature 102 °F 82 °F 96 °F (1990)
Min Temperature 71 °F 57 °F 36 °F (1984)
Degree Days  
Heating Degree Days 0 1  
Month to date heating degree days 0 2  
Since 1 July heating degree days 0 9  
Cooling Degree Days 22 5  
Month to date cooling degree days 42 11  
Year to date cooling degree days 2674 1934  
Growing Degree Days 36 (Base 50)    
Moisture  
Dew Point 69 °F    
Average Humidity 63    
Maximum Humidity 93    
Minimum Humidity 33    
Precipitation  
Precipitation 0.00 in 0.12 in 0.89 in (2014)
Month to date precipitation 0.00 0.23  
Year to date precipitation 43.18 42.62  
Sea Level Pressure  
Sea Level Pressure 29.97 in    
Wind  
Wind Speed 2 mph ()    
Max Wind Speed 13 mph    
Max Gust Speed 15 mph    
Visibility 10.0 miles    
Events      
T = Trace of Precipitation, MM = Missing Value Source: Averaged Metar Reports

Daily Weather History Graph

Daily Weather History Graph

Search for Another Location

Airport or City:

Astronomy

Oct. 02, 2019 Rise Set
Actual Time 6:49 AM CDT 6:38 PM CDT
Civil Twilight 6:25 AM CDT 7:03 PM CDT
Nautical Twilight 5:56 AM CDT 7:31 PM CDT
Astronomical Twilight 5:28 AM CDT 8:00 PM CDT
Moon 11:01 AM CDT (10/2) 9:47 PM CDT (10/2)
Length of Visible Light 12h 38m
Length of Day
11h 49m
Waxing Crescent, 20% of the Moon is Illuminated
Oct 2
Waxing Crescent
Oct 5
First Quarter
Oct 13
Full
Oct 21
Last Quarter
Oct 27
New

Hourly Weather History & Observations

Time (CDT) Temp. Heat Index Dew Point Humidity Pressure Visibility Wind Dir Wind Speed Gust Speed Precip Events Conditions
1:58 AM 75.0 °F - 70.0 °F 84% 29.98 in 10.0 mi North 4.6 mph - N/A   Clear
2:58 AM 73.9 °F - 70.0 °F 87% 29.96 in 10.0 mi North 3.5 mph - N/A   Clear
3:58 AM 73.9 °F - 69.1 °F 85% 29.96 in 10.0 mi North 4.6 mph - N/A   Clear
4:58 AM 73.9 °F - 69.1 °F 85% 29.98 in 10.0 mi North 5.8 mph - N/A   Clear
6:58 AM 72.0 °F - 68.0 °F 87% 30.01 in 10.0 mi Calm Calm - N/A   Clear
7:58 AM 75.9 °F - 70.0 °F 82% 30.03 in 10.0 mi Calm Calm - N/A   Clear
8:58 AM 82.0 °F 85.9 °F 70.0 °F 67% 30.04 in 10.0 mi Calm Calm - N/A   Clear
9:58 AM 90.0 °F 93.6 °F 68.0 °F 48% 30.03 in 10.0 mi NNE 3.5 mph - N/A   Clear
10:58 AM 91.9 °F 95.9 °F 68.0 °F 45% 30.03 in 10.0 mi Calm Calm - N/A   Clear
11:58 AM 97.0 °F 101.0 °F 66.9 °F 37% 30.01 in 10.0 mi Variable 4.6 mph - N/A   Clear
12:58 PM 99.0 °F 104.2 °F 68.0 °F 36% 29.98 in 10.0 mi North 8.1 mph - N/A   Scattered Clouds
1:58 PM 96.1 °F 99.9 °F 66.9 °F 38% 29.96 in 10.0 mi NE 6.9 mph - N/A   Mostly Cloudy
2:58 PM 99.0 °F 102.9 °F 66.0 °F 34% 29.93 in 10.0 mi Calm Calm - N/A   Partly Cloudy
3:58 PM 99.0 °F 102.3 °F 64.9 °F 33% 29.92 in 10.0 mi Calm Calm - N/A   Scattered Clouds
4:58 PM 95.0 °F 97.9 °F 66.0 °F 38% 29.92 in 10.0 mi ESE 4.6 mph - N/A   Partly Cloudy
5:58 PM 93.0 °F 100.1 °F 71.1 °F 49% 29.92 in 10.0 mi Calm Calm - N/A   Clear
6:58 PM 84.9 °F 90.7 °F 72.0 °F 65% 29.93 in 10.0 mi SSW 3.5 mph - N/A   Partly Cloudy
7:58 PM 82.0 °F 86.3 °F 71.1 °F 69% 29.95 in 10.0 mi Calm Calm - N/A   Clear
8:58 PM 80.1 °F 83.6 °F 71.1 °F 74% 29.96 in 10.0 mi Calm Calm - N/A   Clear
9:58 PM 78.1 °F - 71.1 °F 79% 29.96 in 10.0 mi Calm Calm - N/A   Clear
10:58 PM 77.0 °F - 70.0 °F 79% 29.97 in 10.0 mi Calm Calm - N/A   Clear
11:58 PM 75.9 °F - 70.0 °F 82% 29.97 in 10.0 mi Calm Calm - N/A   Scattered Clouds